K9BM Weather Reports


time (UTC)temp
F
wind
direction
speed
knots
gust
knots
rain 1hr
in
rain 24hr
in
rain mn
in
humidity
%
barometer
mb
20260509035005 60 274 7.0 11.3 0.00 0.00 0.00 42 1007.1
20260509034504 60 259 7.8 12.2 0.00 0.00 0.00 42 1007.0
20260509034005 60 265 6.1 12.2 0.00 0.00 0.00 41 1007.0
20260509033005 61 288 7.8 14.8 0.00 0.00 0.00 39 1007.1
20260509032005 62 295 8.7 14.8 0.00 0.00 0.00 38 1006.8
20260509031504 62 293 9.6 20.0 0.00 0.00 0.00 36 1006.8
20260509031004 63 288 11.3 20.0 0.00 0.00 0.00 34 1006.8
20260509030004 63 285 11.3 17.4 0.00 0.00 0.00 34 1006.5
20260509025504 63 257 6.1 14.8 0.00 0.00 0.00 33 1006.3
20260509025005 63 277 7.8 13.9 0.00 0.00 0.00 33 1006.2
20260509024504 62 281 9.6 13.9 0.00 0.00 0.00 33 1006.2
20260509024005 62 266 7.8 11.3 0.00 0.00 0.00 36 1006.2
20260509023504 62 270 7.8 11.3 0.00 0.00 0.00 35 1006.1
20260509023004 62 266 7.0 10.4 0.00 0.00 0.00 36 1006.0
20260509022504 62 254 7.8 10.4 0.00 0.00 0.00 36 1005.8
20260509021504 63 261 7.0 10.4 0.00 0.00 0.00 34 1005.7
20260509021004 63 272 5.2 7.8 0.00 0.00 0.00 34 1005.7
20260509020004 64 278 5.2 10.4 0.00 0.00 0.00 33 1005.7
20260509015504 64 303 6.1 10.4 0.00 0.00 0.00 32 1005.7
20260509015004 64 283 6.1 8.7 0.00 0.00 0.00 32 1005.7
20260509014504 64 288 5.2 8.7 0.00 0.00 0.00 32 1005.7
20260509014004 64 289 5.2 10.4 0.00 0.01 0.00 32 1005.7
20260509013504 64 282 5.2 10.4 0.00 0.01 0.00 31 1005.8
20260509013004 64 281 7.0 10.4 0.00 0.01 0.00 31 1005.8
20260509012004 65 294 7.0 10.4 0.00 0.01 0.00 31 1005.8
20260509011505 65 290 6.1 8.7 0.00 0.01 0.00 30 1005.8
20260509011004 65 296 6.1 10.4 0.00 0.01 0.00 31 1005.8
20260509005504 66 282 6.1 10.4 0.00 0.01 0.00 30 1005.9
20260509005004 66 305 6.1 12.2 0.00 0.01 0.00 30 1005.9
20260509004504 66 297 6.1 12.2 0.00 0.01 0.00 30 1006.0
20260509004004 66 283 8.7 11.3 0.00 0.01 0.00 29 1006.1
20260509003004 66 286 6.1 11.3 0.00 0.01 0.00 29 1006.2
20260509002505 66 278 6.1 12.2 0.00 0.01 0.00 30 1006.2
20260509002004 66 306 7.8 13.9 0.00 0.01 0.00 29 1006.3
20260509001504 66 298 9.6 13.9 0.00 0.02 0.00 28 1006.3
20260509001004 66 298 8.7 13.9 0.00 0.02 0.00 29 1006.3
20260509000004 67 283 10.4 15.6 0.00 0.02 0.00 28 1006.4
20260508235005 67 296 8.7 14.8 0.00 0.02 0.00 28 1006.4
20260508234504 67 290 11.3 14.8 0.00 0.02 0.00 28 1006.4
20260508234005 67 311 10.4 17.4 0.00 0.02 0.00 27 1006.4
20260508233005 68 286 13.0 17.4 0.00 0.02 0.00 26 1006.4
20260508232505 68 297 7.8 15.6 0.00 0.02 0.00 26 1006.4
20260508232005 68 291 9.6 17.4 0.00 0.02 0.00 25 1006.4
20260508231505 68 282 12.2 20.0 0.00 0.02 0.00 24 1006.4
20260508231005 68 281 13.0 20.0 0.00 0.02 0.00 23 1006.4
20260508230005 69 281 16.5 21.7 0.00 0.02 0.00 21 1006.5
20260508225505 70 293 13.0 20.9 0.00 0.02 0.00 21 1006.4
20260508225005 70 300 13.9 21.7 0.00 0.02 0.00 22 1006.4
20260508224505 71 290 13.9 21.7 0.00 0.02 0.00 22 1006.4
20260508224005 70 286 12.2 25.2 0.00 0.02 0.00 20 1006.5
20260508223505 71 307 14.8 25.2 0.00 0.02 0.00 20 1006.6
20260508223005 71 288 13.9 21.7 0.00 0.02 0.00 20 1006.6
20260508222505 71 290 11.3 19.1 0.00 0.02 0.00 21 1006.7
20260508222005 71 291 10.4 19.1 0.00 0.02 0.00 21 1006.8
20260508221505 71 297 12.2 18.2 0.00 0.02 0.00 21 1006.7
20260508221006 70 302 13.9 18.2 0.00 0.02 0.00 20 1006.8
20260508215005 70 270 11.3 17.4 0.00 0.02 0.00 23 1006.9
20260508214505 69 269 10.4 15.6 0.00 0.02 0.00 24 1007.1
20260508213505 70 315 11.3 17.4 0.00 0.02 0.00 25 1007.1
20260508213005 69 301 12.2 17.4 0.00 0.02 0.00 25 1007.2
20260508212005 69 280 11.3 15.6 0.00 0.02 0.00 24 1007.4
20260508211505 68 297 9.6 17.4 0.00 0.02 0.00 26 1007.3
20260508211005 68 264 8.7 17.4 0.00 0.02 0.00 24 1007.4
20260508210004 68 276 10.4 15.6 0.00 0.02 0.00 25 1007.6
20260508205505 68 296 12.2 14.8 0.00 0.02 0.00 24 1007.7
20260508205005 68 276 9.6 13.0 0.00 0.02 0.00 31 1007.8
20260508204505 67 256 7.0 13.9 0.00 0.02 0.00 31 1007.9
20260508203505 67 294 10.4 15.6 0.00 0.02 0.00 31 1008.1
20260508203005 66 251 8.7 17.4 0.00 0.02 0.00 33 1008.1
20260508202505 65 237 8.7 17.4 0.00 0.02 0.00 32 1008.2
20260508202005 65 306 11.3 15.6 0.00 0.02 0.00 28 1008.2
20260508201505 65 273 6.1 17.4 0.00 0.02 0.00 31 1008.3
20260508201006 65 238 7.8 17.4 0.00 0.02 0.00 31 1008.4
20260508200005 65 264 12.2 18.2 0.00 0.02 0.00 33 1008.3
20260508195505 64 253 12.2 19.1 0.00 0.02 0.00 32 1008.3
20260508195005 64 268 10.4 19.1 0.00 0.02 0.00 33 1008.3
20260508194505 64 279 13.9 18.2 0.00 0.02 0.00 34 1008.4
20260508193505 65 276 8.7 17.4 0.00 0.02 0.00 37 1008.4
20260508193006 65 271 13.0 17.4 0.00 0.02 0.00 34 1008.5
20260508192505 66 282 11.3 15.6 0.00 0.02 0.00 35 1008.5
20260508191505 65 299 10.4 17.4 0.00 0.02 0.00 37 1008.6
20260508191005 65 256 11.3 17.4 0.00 0.02 0.00 38 1008.6
20260508190005 64 281 8.7 14.8 0.00 0.02 0.00 38 1008.7
20260508185505 64 277 9.6 17.4 0.00 0.02 0.00 38 1008.8
20260508185005 64 275 13.0 17.4 0.00 0.02 0.00 37 1008.9
20260508184005 64 261 11.3 20.9 0.00 0.02 0.00 37 1008.9
20260508183005 64 286 13.0 20.0 0.00 0.02 0.00 41 1009.1
20260508182505 64 286 12.2 18.2 0.00 0.02 0.00 39 1009.1
20260508182005 64 277 10.4 18.2 0.00 0.02 0.00 42 1009.2
20260508181505 64 286 10.4 14.8 0.00 0.02 0.00 42 1009.2
20260508181005 64 282 11.3 15.6 0.00 0.02 0.00 41 1009.3
20260508180005 64 271 11.3 21.7 0.00 0.02 0.00 42 1009.4
20260508175505 64 276 11.3 21.7 0.00 0.02 0.00 41 1009.6
20260508174505 64 284 12.2 20.9 0.00 0.02 0.00 42 1009.8
20260508173505 63 272 11.3 17.4 0.00 0.02 0.00 42 1010.0
20260508173005 64 282 12.2 17.4 0.00 0.02 0.00 40 1010.1
20260508172505 63 289 13.9 17.4 0.00 0.02 0.00 42 1010.1
20260508172005 63 279 13.0 19.1 0.00 0.02 0.00 43 1010.2
20260508171504 63 286 10.4 19.1 0.00 0.02 0.00 45 1010.2
20260508171005 63 285 11.3 19.1 0.00 0.02 0.00 44 1010.1
20260508170005 62 279 11.3 17.4 0.00 0.02 0.00 45 1010.1
20260508165505 62 285 11.3 14.8 0.00 0.02 0.00 45 1010.2
20260508164505 61 257 11.3 15.6 0.00 0.02 0.00 48 1010.3
20260508164005 61 255 10.4 14.8 0.00 0.02 0.00 49 1010.3
20260508163505 61 258 10.4 14.8 0.00 0.02 0.00 50 1010.4
20260508163005 60 286 10.4 13.9 0.00 0.02 0.00 51 1010.3
20260508162504 60 272 11.3 15.6 0.00 0.02 0.00 52 1010.4
20260508161505 59 263 9.6 17.4 0.00 0.02 0.00 53 1010.4
20260508161005 60 252 12.2 17.4 0.00 0.02 0.00 52 1010.3
20260508160005 59 261 10.4 14.8 0.00 0.02 0.00 55 1010.4
20260508155505 59 250 9.6 13.9 0.00 0.02 0.00 55 1010.4
20260508155005 58 268 10.4 13.9 0.00 0.02 0.00 55 1010.5
20260508154505 58 270 8.7 12.2 0.00 0.02 0.00 55 1010.6
20260508153505 57 245 4.3 7.8 0.00 0.02 0.00 57 1010.7
20260508153004 57 262 3.5 7.0 0.00 0.02 0.00 58 1010.8
20260508152504 56 241 2.6 7.0 0.00 0.02 0.00 59 1010.9
20260508152004 56 254 4.3 7.0 0.00 0.02 0.00 62 1010.9
20260508151505 55 265 2.6 7.8 0.00 0.02 0.00 61 1011.0
20260508151004 55 267 5.2 10.4 0.00 0.02 0.00 61 1011.1
20260508150005 54 268 7.8 10.4 0.00 0.02 0.00 61 1011.2
20260508145505 54 254 7.8 10.4 0.00 0.02 0.00 59 1011.3
20260508145005 53 240 5.2 7.8 0.00 0.02 0.00 60 1011.4
20260508144504 53 252 5.2 7.8 0.00 0.02 0.00 62 1011.4
20260508144005 53 271 5.2 8.7 0.00 0.02 0.00 64 1011.4
20260508143505 53 265 6.1 10.4 0.00 0.02 0.00 64 1011.4
20260508142505 52 251 6.1 10.4 0.00 0.02 0.00 64 1011.5
20260508142005 51 241 6.1 8.7 0.00 0.02 0.00 65 1011.5
20260508141005 49 230 5.2 7.8 0.00 0.02 0.00 69 1011.6
20260508135508 49 212 5.2 8.7 0.00 0.02 0.00 68 1011.6
20260508135005 49 227 6.1 10.4 0.00 0.02 0.00 68 1011.7
20260508134505 49 233 5.2 10.4 0.00 0.02 0.00 68 1011.6
20260508134005 48 232 6.1 8.7 0.00 0.02 0.00 69 1011.7
20260508133005 48 218 5.2 7.8 0.00 0.02 0.00 69 1011.6
20260508132504 48 225 5.2 7.8 0.00 0.02 0.00 69 1011.6
20260508132005 49 213 5.2 7.8 0.00 0.02 0.00 68 1011.7
20260508131005 49 231 4.3 7.8 0.00 0.02 0.00 67 1011.6
20260508130005 50 228 5.2 10.4 0.00 0.02 0.00 67 1011.5
20260508125505 49 225 6.1 10.4 0.00 0.02 0.00 67 1011.4
20260508124504 48 228 6.1 10.4 0.00 0.02 0.00 69 1011.3
20260508124004 48 226 5.2 8.7 0.00 0.02 0.00 70 1011.3
20260508123505 48 224 6.1 10.4 0.00 0.02 0.00 70 1011.3
20260508122505 47 222 6.1 10.4 0.00 0.02 0.00 71 1011.2
20260508122005 47 200 7.8 10.4 0.00 0.02 0.00 72 1011.1
20260508121505 47 199 6.1 12.2 0.00 0.02 0.00 72 1011.1
20260508120005 48 212 5.2 10.4 0.00 0.02 0.00 71 1011.2
20260508115504 48 222 5.2 11.3 0.00 0.02 0.00 71 1011.2
20260508115005 47 204 7.8 11.3 0.00 0.02 0.00 72 1011.1
20260508114504 47 208 6.1 10.4 0.00 0.02 0.00 73 1011.1
20260508114005 47 206 6.1 11.3 0.00 0.02 0.00 74 1011.0
20260508113504 47 211 7.0 11.3 0.00 0.02 0.00 74 1011.1
20260508113005 47 204 8.7 11.3 0.00 0.02 0.00 74 1011.0
20260508112504 47 206 7.0 11.3 0.00 0.02 0.00 74 1011.1
20260508112004 47 205 7.0 11.3 0.00 0.02 0.00 74 1011.0
20260508111505 47 208 6.1 11.3 0.00 0.02 0.00 74 1011.1
20260508110004 47 226 4.3 7.8 0.00 0.02 0.00 74 1011.1
20260508105504 47 237 5.2 7.8 0.00 0.02 0.00 73 1011.2
20260508104005 47 244 6.1 10.4 0.00 0.02 0.00 73 1011.2
20260508103505 47 236 7.0 11.3 0.00 0.02 0.00 72 1011.2
20260508103005 47 241 7.8 11.3 0.00 0.02 0.00 73 1011.2
20260508102504 47 233 8.7 11.3 0.00 0.02 0.00 73 1011.1
20260508102005 46 233 7.0 10.4 0.00 0.02 0.00 74 1011.0
20260508101504 46 233 7.0 10.4 0.00 0.02 0.00 75 1010.9
20260508101005 46 227 6.1 10.4 0.00 0.02 0.00 76 1010.9
20260508100004 44 233 6.1 7.8 0.00 0.02 0.00 78 1010.9
20260508095504 45 234 4.3 6.1 0.00 0.02 0.00 78 1010.9
20260508095005 45 233 4.3 7.8 0.00 0.02 0.00 77 1010.9
20260508094505 46 231 4.3 7.8 0.00 0.02 0.00 76 1010.9
20260508094005 46 242 5.2 8.7 0.00 0.02 0.00 75 1010.9
20260508093504 46 231 6.1 8.7 0.00 0.02 0.00 75 1010.8
20260508093004 46 242 6.1 10.4 0.00 0.02 0.00 75 1010.8
20260508092504 47 235 5.2 10.4 0.00 0.02 0.00 75 1010.8
20260508092004 47 238 6.1 10.4 0.00 0.02 0.00 74 1010.9
20260508091005 47 237 7.8 10.4 0.00 0.02 0.00 74 1010.8
20260508090005 47 234 7.8 10.4 0.00 0.02 0.00 74 1010.8
20260508085504 47 238 6.1 8.7 0.00 0.02 0.00 75 1010.8
20260508085005 47 238 5.2 8.7 0.00 0.02 0.00 75 1010.8
20260508084505 47 230 5.2 8.7 0.00 0.02 0.00 75 1010.7
20260508083005 46 238 5.2 10.4 0.00 0.02 0.00 76 1010.8
20260508081504 46 233 4.3 10.4 0.00 0.02 0.00 78 1010.7
20260508075004 47 221 4.3 10.4 0.00 0.02 0.00 78 1011.0
20260508074504 47 237 7.0 10.4 0.00 0.02 0.00 78 1011.1
20260508073004 47 235 6.1 10.4 0.00 0.02 0.00 79 1011.0
20260508072504 47 245 6.1 10.4 0.00 0.02 0.00 79 1011.1
20260508072004 47 242 7.8 10.4 0.00 0.03 0.00 80 1011.1
20260508071504 47 236 7.0 10.4 0.00 0.03 0.00 80 1011.1
20260508070005 46 239 6.1 10.4 0.00 0.04 0.00 81 1011.1
20260508065004 46 242 6.1 8.7 0.00 0.05 0.00 82 1011.1
20260508064504 46 223 4.3 6.1 0.00 0.06 0.00 82 1011.1
20260508064004 46 234 4.3 6.1 0.00 0.08 0.00 82 1011.1
20260508063504 46 225 4.3 7.0 0.00 0.08 0.00 82 1011.1
20260508062505 47 239 5.2 7.0 0.00 0.08 0.00 82 1011.1
20260508062004 47 251 5.2 8.7 0.00 0.08 0.00 82 1011.0
20260508061504 47 250 5.2 8.7 0.00 0.08 0.00 83 1011.0
20260508061005 46 235 5.2 7.0 0.00 0.08 0.00 84 1010.9
20260508060005 46 255 5.2 7.0 0.00 0.08 0.00 84 1011.0
20260508055504 46 242 5.2 7.0 0.00 0.08 0.08 84 1010.9
20260508055004 46 244 5.2 7.8 0.00 0.08 0.08 84 1010.9
20260508054004 46 247 6.1 10.4 0.00 0.08 0.08 84 1010.9
20260508053504 46 245 5.2 10.4 0.00 0.08 0.08 84 1010.9
20260508053004 46 245 6.1 8.7 0.00 0.08 0.08 85 1010.8
20260508052004 47 240 5.2 8.7 0.00 0.08 0.08 83 1011.0
20260508051504 47 235 6.1 10.4 0.00 0.08 0.08 84 1011.0
20260508051004 47 267 7.8 10.4 0.00 0.08 0.08 85 1010.9
20260508050004 46 249 4.3 6.1 0.00 0.08 0.08 86 1011.0
20260508045504 46 233 5.2 6.1 0.00 0.08 0.08 86 1011.0
20260508044005 46 241 4.3 5.2 0.00 0.08 0.08 86 1011.0
20260508043005 47 238 2.6 4.3 0.00 0.08 0.08 85 1011.0
20260508042504 47 245 2.6 4.3 0.00 0.08 0.08 85 1011.0
20260508041504 47 255 2.6 4.3 0.00 0.08 0.08 84 1011.0
20260508040004 47 240 4.3 5.2 0.00 0.08 0.08 84 1011.0
20260508035504 47 243 4.3 5.2 0.00 0.08 0.08 85 1010.9